AMC-10 (GE-10)

Last updated on March 1, 2019, 3:08 a.m. UTC

1 28154U 04003A   19058.86548247 -.00000204  00000-0  00000+0 0  9990
2 28154   0.1885  33.3948 0003298 317.3258 292.6186  0.99124571 55197
UTC
Height (km)
Latitude
Longitude
Inclination
Orbital Period
UTC large
Height (km)
Speed (km/s)
/
Latitude / Longitude
Inclination (degrees)
Orbital Period (minutes)
Azimuth
Elevation
Range (km)
Doppler Factor
iOS Compass Heading
iOS Angle

Next 30 passes for location: Hong Kong

Rise time Rise Azimuth (degrees) Set time Set Azimuth (degrees) Duration Max altitude (degrees)

No matching passes for this satellites